Weather in Kirovgrad

Russia / Sverdlovsk Oblast     57°25′56″N   60°03′46″E
temp.,
°C
wind,
m/s
gust,
m/s
humid.,
%
clouds,
%
prec.,
mm/h
press.,
hPa
HPBL,
m
15 april, thu
thu1523:00+8wsw229278 0.0 102715
02:00+7wsw229358 0.0 102626
05:00+6wsw239377 0.0 102562
08:00+10wsw3118110 0.0 1024360
11:00+14wsw59615 0.0 1022718
14:00+17wsw58385 0.0 10201026
17:00+17wsw5105129 0.0 10191151
20:00+13wsw411709 0.0 1018487
16 april, fri
fri1623:00+11wsw4137424 0.0 1018474
02:00+9n4790100 0.1 1020690
05:00+3nne4896100 1.3 1024523
08:00+4nne487181 0.7 1026806
11:00+6ne45495 0.7 10271203
14:00+8ne34380 0.0 10271427
17:00+8ne22340 0.0 10271603
20:00+4ne22515 0.0 102711
17 april, sat
sat1723:00+2nw00594 0.0 102810
02:00+1wnw11635 0.0 102710
05:00−1nnw11722 0.0 102811
08:00+2nw12580 0.0 1027231
11:00+6nnw34455 0.0 10261283
14:00+9nw4540100 0.0 10251982
17:00+8nw564468 0.0 10231795
20:00+5nw486386 0.0 1023370
18 april, sun
sun1823:00+3wnw411715 0.0 1022520
02:00+2wnw413745 0.0 1019670
05:00+2wnw614775 0.0 1017694
08:00+3nw6137792 0.0 10171087
11:00+1n71049100 0.3 10211679
14:00+1nne6848100 0.1 10251826
17:00+1nne5739100 0.1 10282322
20:00−2ne485693 0.1 1031558
19 april, mon
mon1923:00−4nne28613 0.1 1033338
02:00−5nne26630 0.0 1034237
05:00−5n23650 0.0 103681
08:00−3n26430 0.0 10371213
11:000nne34335 0.0 10361707
14:00+2n24305 0.0 10351947
17:00+3nne143090 0.0 10332096
20:000sw1148100 0.0 103310